Weather History for Gwinner, ND

Change the Weather History Date:

Friday, June 14, 2013

  Actual Average (KP67) Record (KP67)
Temperature  
Mean Temperature 71 °F -  
Max Temperature 80 °F 76 °F 84 °F (1998)
Min Temperature 62 °F 55 °F 50 °F (1997)
Cooling Degree Days 6    
Growing Degree Days 21 (Base 50)    
Moisture  
Dew Point 63 °F    
Average Humidity 78    
Maximum Humidity 94    
Minimum Humidity 54    
Precipitation  
Precipitation 0.00 in - - ()
Sea Level Pressure  
Sea Level Pressure 29.87 in    
Wind  
Wind Speed 12 mph (SE)    
Max Wind Speed 25 mph    
Max Gust Speed 31 mph    
Visibility 10 miles    
Events      
Averages and records for this station are not official NWS values.
T = Trace of Precipitation, MM = Missing Value Source: NWS Daily Summary

Daily Weather History Graph

Daily Weather History Graph

Search for Another Location

Airport:

Trip Planner

Search our weather history database for the weather conditions in past years. The results will help you decide how hot, cold, wet, or windy it might be!

Date:

Astronomy

Jun. 14, 2013 Rise Set
Actual Time 5:38 AM CDT 9:23 PM CDT
Civil Twilight 4:59 AM CDT 10:02 PM CDT
Nautical Twilight 4:07 AM CDT 10:54 PM CDT
Astronomical Twilight 2:53 AM CDT 12:08 AM CDT
Moon 11:31 AM CDT (6/14) 12:14 AM CDT (6/14)
Length of Visible Light 17h 03m
Length of Day
15h 45m
Waxing Crescent, 30% of the Moon is Illuminated
Jun 14
Waxing Crescent
Jun 16
First Quarter
Jun 23
Full
Jun 29
Last Quarter
Jul 8
New

Hourly Weather History & Observations

Time (CDT) Temp. Heat Index Dew Point Humidity Pressure Visibility Wind Dir Wind Speed Gust Speed Precip Events Conditions
12:15 AM 68.0 °F - 57.2 °F 68% 30.03 in 10.0 mi SSE 11.5 mph - 0.00 in   Scattered Clouds
12:35 AM 66.2 °F - 60.8 °F 83% 30.03 in 8.0 mi South 10.4 mph - 0.00 in   Mostly Cloudy
12:55 AM 64.4 °F - 62.6 °F 94% 30.01 in 9.0 mi SSE 8.1 mph - 0.00 in   Mostly Cloudy
1:15 AM 64.4 °F - 62.6 °F 94% 30.00 in 10.0 mi ESE 6.9 mph - 0.00 in   Partly Cloudy
1:35 AM 64.4 °F - 62.6 °F 94% 29.98 in 10.0 mi East 8.1 mph - 0.00 in   Scattered Clouds
1:55 AM 64.4 °F - 62.6 °F 94% 29.97 in 10.0 mi East 6.9 mph - 0.00 in   Partly Cloudy
2:15 AM 62.6 °F - 60.8 °F 94% 29.98 in 10.0 mi SE 5.8 mph - 0.00 in   Partly Cloudy
2:35 AM 64.4 °F - 60.8 °F 88% 29.96 in 10.0 mi SE 11.5 mph - 0.00 in   Partly Cloudy
2:55 AM 64.4 °F - 60.8 °F 88% 29.96 in 10.0 mi SSE 11.5 mph - 0.00 in   Clear
3:15 AM 64.4 °F - 60.8 °F 88% 29.96 in 10.0 mi SE 9.2 mph - 0.00 in   Clear
3:35 AM 62.6 °F - 60.8 °F 94% 29.94 in 10.0 mi ESE 8.1 mph - 0.00 in   Partly Cloudy
3:55 AM 62.6 °F - 60.8 °F 94% 29.93 in 10.0 mi SE 8.1 mph - 0.00 in   Clear
4:15 AM 62.6 °F - 60.8 °F 94% 29.93 in 10.0 mi ESE 10.4 mph - 0.00 in   Clear
4:35 AM 62.6 °F - 60.8 °F 94% 29.92 in 10.0 mi ESE 9.2 mph - 0.00 in   Clear
4:55 AM 62.6 °F - 60.8 °F 94% 29.92 in 10.0 mi SE 10.4 mph - 0.00 in   Clear
5:15 AM 62.6 °F - 60.8 °F 94% 29.93 in 10.0 mi ESE 10.4 mph - 0.00 in   Mostly Cloudy
5:35 AM 62.6 °F - 60.8 °F 94% 29.94 in 10.0 mi ESE 11.5 mph - 0.00 in   Mostly Cloudy
5:55 AM 62.6 °F - 60.8 °F 94% 29.94 in 10.0 mi ESE 11.5 mph - 0.00 in   Overcast
6:15 AM 62.6 °F - 60.8 °F 94% 29.93 in 10.0 mi ESE 12.7 mph - 0.00 in   Mostly Cloudy
6:35 AM 62.6 °F - 60.8 °F 94% 29.94 in 10.0 mi ESE 11.5 mph - 0.00 in   Partly Cloudy
6:55 AM 62.6 °F - 60.8 °F 94% 29.95 in 10.0 mi ESE 10.4 mph - 0.00 in   Clear
7:15 AM 62.6 °F - 60.8 °F 94% 29.95 in 10.0 mi SE 9.2 mph - 0.00 in   Clear
7:35 AM 64.4 °F - 60.8 °F 88% 29.95 in 10.0 mi ESE 12.7 mph - 0.00 in   Mostly Cloudy
7:55 AM 64.4 °F - 60.8 °F 88% 29.94 in 10.0 mi ESE 13.8 mph - 0.00 in   Overcast
8:15 AM 66.2 °F - 60.8 °F 83% 29.94 in 10.0 mi SE 16.1 mph - 0.00 in   Overcast
8:35 AM 66.2 °F - 60.8 °F 83% 29.93 in 10.0 mi ESE 18.4 mph 24.2 mph 0.00 in   Overcast
8:55 AM 66.2 °F - 60.8 °F 83% 29.92 in 10.0 mi ESE 19.6 mph 25.3 mph 0.00 in   Overcast
9:15 AM 66.2 °F - 60.8 °F 83% 29.92 in 10.0 mi SE 20.7 mph 26.5 mph 0.00 in   Partly Cloudy
9:35 AM 66.2 °F - 60.8 °F 83% 29.92 in 10.0 mi SE 16.1 mph - 0.00 in   Clear
9:55 AM 66.2 °F - 60.8 °F 83% 29.92 in 10.0 mi SE 18.4 mph - 0.00 in   Clear
10:15 AM 66.2 °F - 60.8 °F 83% 29.87 in 10.0 mi ESE 19.6 mph 25.3 mph 0.00 in   Clear
10:35 AM 66.2 °F - 60.8 °F 83% 29.92 in 10.0 mi SE 10.4 mph 21.9 mph 0.00 in   Scattered Clouds
10:55 AM 68.0 °F - 62.6 °F 83% 29.93 in 10.0 mi SE 6.9 mph - 0.00 in   Partly Cloudy
11:15 AM 69.8 °F - 60.8 °F 73% 29.91 in 10.0 mi ESE 12.7 mph - 0.00 in   Clear
11:35 AM 69.8 °F - 60.8 °F 73% 29.82 in 10.0 mi ESE 21.9 mph 29.9 mph 0.00 in   Clear
11:55 AM 69.8 °F - 60.8 °F 73% 29.84 in 10.0 mi SE 21.9 mph 26.5 mph 0.00 in   Clear
12:15 PM 73.4 °F - 60.8 °F 65% 29.85 in 10.0 mi SE 25.3 mph - 0.00 in   Clear
12:35 PM 73.4 °F - 60.8 °F 65% 29.84 in 10.0 mi SE 18.4 mph 26.5 mph 0.00 in   Scattered Clouds
12:55 PM 75.2 °F - 60.8 °F 61% 29.86 in 10.0 mi SSE 16.1 mph 26.5 mph 0.00 in   Scattered Clouds
1:15 PM 75.2 °F - 60.8 °F 61% 29.85 in 10.0 mi SSE 17.3 mph 23.0 mph 0.00 in   Mostly Cloudy
1:35 PM 73.4 °F - 60.8 °F 65% 29.77 in 10.0 mi SE 23.0 mph 28.8 mph 0.00 in   Partly Cloudy
1:55 PM 78.8 °F - 62.6 °F 57% 29.78 in 10.0 mi SE 23.0 mph 31.1 mph 0.00 in   Clear
2:15 PM 80.6 °F 81.8 °F 62.6 °F 54% 29.80 in 10.0 mi SSE 18.4 mph 24.2 mph 0.00 in   Clear
2:35 PM 80.6 °F 82.3 °F 64.4 °F 58% 29.80 in 10.0 mi SSE 17.3 mph - 0.00 in   Mostly Cloudy
2:55 PM 80.6 °F 82.3 °F 64.4 °F 58% 29.80 in 10.0 mi SE 17.3 mph 21.9 mph 0.00 in   Mostly Cloudy
3:15 PM 80.6 °F 82.3 °F 64.4 °F 58% 29.80 in 10.0 mi SSE 16.1 mph 21.9 mph 0.00 in   Overcast
3:35 PM 80.6 °F 82.3 °F 64.4 °F 58% 29.80 in 10.0 mi SSE 16.1 mph - 0.00 in   Mostly Cloudy
3:55 PM 80.6 °F 81.8 °F 62.6 °F 54% 29.79 in 10.0 mi South 15.0 mph - 0.00 in   Mostly Cloudy
4:15 PM 80.6 °F 81.8 °F 62.6 °F 54% 29.80 in 10.0 mi South 17.3 mph - 0.00 in   Overcast
4:35 PM 78.8 °F - 64.4 °F 61% 29.79 in 10.0 mi SE 13.8 mph - 0.00 in   Overcast
4:55 PM 78.8 °F - 64.4 °F 61% 29.79 in 10.0 mi SSE 13.8 mph 21.9 mph 0.00 in   Mostly Cloudy
5:15 PM 78.8 °F - 64.4 °F 61% 29.78 in 10.0 mi SSE 12.7 mph 18.4 mph 0.00 in   Overcast
5:35 PM 78.8 °F - 66.2 °F 65% 29.78 in 10.0 mi SSE 11.5 mph - 0.00 in   Mostly Cloudy
5:55 PM 78.8 °F - 66.2 °F 65% 29.78 in 10.0 mi SSE 9.2 mph - 0.00 in   Overcast
6:15 PM 78.8 °F - 66.2 °F 65% 29.78 in 10.0 mi SE 9.2 mph - 0.00 in   Mostly Cloudy
6:35 PM 78.8 °F - 66.2 °F 65% 29.77 in 10.0 mi SE 11.5 mph - 0.00 in   Mostly Cloudy
6:55 PM 78.8 °F - 68.0 °F 69% 29.77 in 10.0 mi ESE 8.1 mph - 0.00 in   Mostly Cloudy
7:15 PM 78.8 °F - 68.0 °F 69% 29.77 in 10.0 mi ESE 6.9 mph - 0.00 in   Mostly Cloudy
7:35 PM 78.8 °F - 69.8 °F 74% 29.77 in 10.0 mi ESE 4.6 mph - 0.00 in   Mostly Cloudy
7:55 PM 78.8 °F - 69.8 °F 74% 29.77 in 10.0 mi SE 4.6 mph - 0.00 in   Mostly Cloudy
8:15 PM 78.8 °F - 69.8 °F 74% 29.78 in 10.0 mi Calm Calm - 0.00 in   Scattered Clouds
8:35 PM 78.8 °F - 69.8 °F 74% 29.78 in 10.0 mi Calm Calm - 0.00 in   Mostly Cloudy
8:55 PM 78.8 °F - 69.8 °F 74% 29.78 in 10.0 mi Calm Calm - 0.00 in   Mostly Cloudy
9:15 PM 75.2 °F - 69.8 °F 83% 29.79 in 10.0 mi WNW 5.8 mph - 0.00 in   Mostly Cloudy
9:35 PM 75.2 °F - 69.8 °F 83% 29.80 in 10.0 mi NW 9.2 mph - 0.00 in   Scattered Clouds
9:55 PM 73.4 °F - 68.0 °F 83% 29.81 in 10.0 mi NW 9.2 mph - 0.00 in   Partly Cloudy
10:15 PM 73.4 °F - 66.2 °F 78% 29.82 in 10.0 mi NW 9.2 mph - 0.00 in   Clear
10:35 PM 73.4 °F - 66.2 °F 78% 29.84 in 10.0 mi NW 9.2 mph - 0.00 in   Clear
10:55 PM 71.6 °F - 66.2 °F 83% 29.85 in 10.0 mi NW 9.2 mph - 0.00 in   Clear
11:15 PM 71.6 °F - 66.2 °F 83% 29.85 in 10.0 mi NW 9.2 mph - 0.00 in   Clear
11:35 PM 71.6 °F - 66.2 °F 83% 29.85 in 10.0 mi NW 8.1 mph - 0.00 in   Clear
11:55 PM 69.8 °F - 66.2 °F 88% 29.85 in 10.0 mi NW 9.2 mph - 0.00 in   Clear